Regional Weather Roundup
Issued by NWS Spokane, WA

Home | Current Version | Previous Version | Text Only | Print | Product List | Glossary On
Versions: 1 2 3 4 5 6 7 8 9 10 11 12 13 14 15 16 17 18 19 20 21 22 23 24 25 26 27 28 29 30 31 32 33 34 35 36 37 38 39 40 41 42 43 44 45 46 47 48 49 50
508
NZUS01 KOTX 270725
RWROTX

Eastern Washington/Northern Idaho Roundup
National Weather Service, Spokane WA
1200 AM PDT THU APR 27 2017

Note: "fair" indicated few or no clouds below 12,000 feet with no
significant weather and/or obstructions to visibility.

...Northeast Washington and Northern Idaho Panhandle...

CITY           SKY/WX    TMP DP  RH WIND       PRES   REMARKS
Spokane Intl   PTCLDY    42  33  70 SW14      29.72S
Spokane Downto PTCLDY    41  40  96 NE3       29.73S
Coeur d Alene  CLOUDY    41  39  93 SW3       29.73R
Deer Park      CLOUDY    38  36  92 CALM      29.72R
Sandpoint      CLOUDY    41  39  93 SW7       29.72R
Bonners Ferry  CLOUDY    41  37  87 SW6       29.68R

...Southeast Washington and southern Idaho Panhandle...

CITY           SKY/WX    TMP DP  RH WIND       PRES   REMARKS
Walla Walla    CLOUDY    47  38  71 SW13      29.90R
Pullman/Moscow PTCLDY    41  35  79 SW18G25   29.81R
Lewiston       CLOUDY    47  39  74 CALM      29.83R
Lowell           N/A     43  41  93 CALM      29.85R
Grangeville    CLOUDY    36  34  93 W3        29.81R

...Columbia Basin...

CITY           SKY/WX    TMP DP  RH WIND       PRES   REMARKS
Ephrata        PTCLDY    44  28  53 SW12      29.79R
Moses Lake     PTCLDY    46  30  53 SW12      29.81R
Pasco          CLEAR     48  34  58 SW15      29.88R
Richland       SUNNY     44  36  71 SW10      29.89R
Hermiston      CLOUDY    49  39  68 SW21G29   29.91R
Pendleton      LGT RAIN  44  37  76 W25G33    29.89R

...East Slopes Cascades...

CITY           SKY/WX    TMP DP  RH WIND       PRES   REMARKS
The Dalles     CLOUDY    49  37  63 W26G35    29.97S
Yakima         CLEAR     50  29  44 W15G29    29.87R
Ellensburg     PTCLDY    42  31  64 NW22G31   29.85S
Stampede Pass  SNOW      30  30 100 W14G28    29.84S VSB 1/2 WCI  19
Wenatchee      PTCLDY    46  30  53 NW18      29.79R
Omak           PTCLDY    45  24  43 NW9       29.74R
Chelan           N/A     48  23  37 W15         N/A
Sunnyside      SUNNY     40  32  73 CALM      29.88R

...Southern British Columbia...

CITY           SKY/WX    TMP DP  RH WIND       PRES   REMARKS
Penticton      MOCLDY    48  34  57 SE2       29.73R
Cranbrook      CLOUDY    37  36  93 VRB2      29.61S
Osoyoos          N/A     54  27  35 N9G17       N/A
Creston          N/A     45  39  81 NW5         N/A

...Western Montana...

CITY           SKY/WX    TMP DP  RH WIND       PRES   REMARKS
Kalispell      LGT RAIN  41  39  93 S10       29.65S
Libby            N/A     39  39 100 CALM      29.65R
Missoula       CLOUDY    41  36  82 W5        29.71S

...Neighboring Cities...

CITY           SKY/WX    TMP DP  RH WIND       PRES   REMARKS
Seattle        CLOUDY    46  39  76 SW14      29.99S
Portland       MOCLDY    45  40  82 W7        30.11R
Boise          MOCLDY    42  37  82 NW9       29.84R
Great Falls    PTCLDY    37  36  96 S5        29.59F
Calgary        LGT SNOW  34  32  93 E6        29.65S FOG     WCI  29



USA.gov is the U.S. government's official web portal to all federal, state and local government web resources and services.